[sarex] 2 Line ISS Keps 10-5

Dave Larsen PhD doc at volcano.net
Wed Oct 4 19:08:38 PDT 2006


ISS
1 25544U 98067A   06277.98593750  .00017365  00000-0  11006-3 0  7999
2 25544 051.6377 341.8330 0012852 060.1235 312.1298 15.76560478450484


More information about the SAREX mailing list